Tracking 31027 objects as of 19-Jul-2025
HD Live streaming from Space Station
objects crossing your sky now

FENGYUN 1C DEB

Track FENGYUN 1C DEB now!
10-day predictions


NORAD ID: 32171
Int'l Code: 1999-025CTR
Perigee: 744.0 km
Apogee: 1,478.1 km
Inclination: 102.8 °
Period: 107.3 minutes
Semi major axis: 7482 km
RCS: 0.0135 m2 (small)
Launch date: May 10, 1999
Source: People's Republic of China (PRC)
Launch site: Taiyaun Space Center, China (TSC)

Note: This is SATELLITE DEBRIS
Your satellite tracking list
FENGYUN 1C DEB
Track 1 satellite(s)




NASA's NSSDC Master Catalog

Two Line Element Set (TLE):
1 32171U 99025CTR 25195.85890348  .00001539  00000-0  14150-2 0  9997
2 32171 102.8114  52.3024 0490551 332.9387  41.9166 13.41442082585923
Source of the keplerian elements: AFSPC